Terug naar catalogus

Taurus 1

TAURUS-1

ActiefAmateurradioPO
NORAD 44530·PAYLOAD·🇨🇳 China

Gelanceerd Sep 12, 2019 vanaf Taiyuan Satellite Launch Center

Loading…

Volgende Passages (komende 24 uur)

TLE

VersSource: Space-Track

Epoch: Sep 14, 2026, 14:22 UTC

1 44530U 19059C   26257.59903887  .00003892  00000-0  61595-3 0  9992
2 44530  98.6494  68.0804 0008911  37.1520 323.0301 14.72883218371806

Volg Taurus 1 in realtime met AllMySat

Download on the App Store